Temp
54 54 54 54 54 53 51 46 38 52 57 46 45 42 48 51 51 53 50 49 47 45 47 45 46 47 49 52 53 49 49 42 36 41 49 50 48 45 45 34 33 33 27 32
53 53 54 53 53 53 47 41 40 53 53 40 42 46 48 50 49 49 47 46 48 49 45 40 45 47 51 51 49 47 49 40 34 39 45 49 44 47 47 41 36 33 27 34
53 53 53 53 53 53 46 39 32 40 48 48 45 43 44 44 51 49 48 46 47 45 44 45 44 45 48 49 48 49 49 41 38 35 40 42 36 40 45 42 29 36 34 41
53 53 53 53 53 53 45 38 37 39 35 41 43 45 45 43 42 48 48 43 47 43 36 39 39 44 46 47 48 45 45 35 38 40 41 40 39 40 42 39 42 36 43 42
53 53 53 53 53 53 43 35 38 40 36 44 43 43 41 44 46 45 43 42 43 43 39 42 38 43 43 43 43 40 40 32 33 32 39 40 36 41 41 43 43 42 42 40
53 53 53 53 53 52 43 40 39 43 35 37 41 42 42 43 46 47 47 45 42 40 43 46 47 46 46 46 43 40 38 33 34 35 40 39 33 37 40 45 45 44 36 41
53 53 53 53 53 54 42 40 41 36 32 35 37 44 46 45 45 43 46 46 43 45 46 45 44 42 42 42 42 43 37 33 33 34 36 28 40 44 45 44 47 46 42 40
52 52 52 52 53 54 49 41 42 36 28 36 39 41 42 46 47 45 46 45 47 48 46 38 33 32 36 37 40 41 40 35 34 32 34 40 42 43 40 39 38 39 39 40
51 52 52 52 52 53 52 45 44 41 36 34 42 41 43 36 36 37 39 44 45 47 37 35 32 31 33 33 36 40 39 38 36 33 30 28 35 40 43 45 31 39 36 36
51 51 51 52 52 53 51 46 47 42 33 39 39 40 40 44 41 36 37 39 40 43 35 33 32 34 41 31 30 29 33 33 33 34 32 34 39 42 46 31 34 36 37 37
51 51 51 51 52 53 51 45 47 44 35 34 38 38 39 40 40 35 37 39 38 36 34 33 34 32 38 35 36 33 32 31 31 33 31 30 41 41 36 37 40 39 39 40
51 51 51 51 52 52 53 45 46 44 40 32 37 40 37 40 38 39 39 41 38 39 32 33 31 31 36 35 31 38 34 36 33 35 34 39 41 39 42 43 38 37 36 38
51 51 51 51 52 52 52 46 45 42 35 33 35 35 39 41 42 40 38 40 42 41 42 39 37 35 36 33 34 33 36 40 34 37 39 38 39 41 42 40 37 37 37 36
50 51 51 51 52 52 53 46 47 47 39 33 29 38 33 39 42 42 42 41 40 41 41 38 37 35 40 35 37 36 40 40 36 33 36 37 37 41 38 36 37 36 36 34
50 50 51 51 52 52 51 47 47 50 41 31 30 36 37 38 38 40 42 41 39 39 37 35 35 36 36 34 33 33 41 37 34 36 41 36 34 36 38 36 35 35 32 29
50 50 51 51 51 52 47 38 45 50 45 33 28 34 35 40 41 40 40 40 40 40 37 36 36 39 36 32 31 38 43 42 44 39 41 37 35 36 37 33 32 32 30 29
50 50 51 51 51 49 43 37 42 50 47 35 29 29 36 39 38 37 37 39 37 38 35 33 34 34 36 32 32 41 42 44 39 36 34 30 31 30 34 32 31 30 27 26
50 50 50 50 51 49 42 44 49 50 41 38 28 27 31 38 33 32 36 34 35 35 34 34 32 33 33 29 37 39 40 37 35 36 38 36 35 33 31 30 28 25 24 24
50 50 51 48 45 38 41 48 50 45 40 32 29 26 25 36 34 34 33 35 30 35 32 31 32 30 28 34 36 36 36 33 32 32 33 32 30 29 28 26 25 23 23 24
50 47 41 32 39 47 47 42 38 37 36 32 24 29 29 35 33 32 31 33 29 27 29 32 30 29 35 38 40 38 37 34 33 28 27 28 27 27 26 25 25 24 23 23
40 32 32 39 48 40 35 31 31 32 31 32 28 30 30 34 27 30 32 28 28 24 24 27 26 24 29 39 38 38 36 35 36 36 35 33 30 27 26 25 26 25 25 24
38 39 42 41 36 32 30 29 31 29 29 30 29 30 29 31 31 29 31 27 27 25 31 28 22 29 35 36 37 36 36 35 32 33 31 30 29 27 26 26 25 25 26 24
44 38 32 33 31 27 26 24 27 27 31 30 31 30 34 34 34 30 30 27 26 30 25 24 28 31 35 36 35 34 34 33 30 29 29 29 27 27 27 25 26 26 25 25
33 30 26 28 25 28 26 26 27 32 31 33 36 32 33 33 31 29 27 29 29 25 23 25 28 33 34 33 33 31 30 30 29 27 27 27 27 27 27 23 23 18 15 10
32 30 23 26 27 26 25 28 31 31 36 37 31 29 29 27 25 28 28 26 24 25 26 29 33 34 33 31 31 30 29 27 27 27 27 22 20 21 18 18 23 20 12 10
32 30 26 26 26 27 23 28 31 36 38 34 31 29 25 26 27 27 26 26 23 27 30 30 33 32 31 31 31 30 29 29 27 27 26 25 20 20 22 22 21 12 13 8
31 25 27 26 27 27 27 30 30 41 38 27 28 27 26 28 26 25 26 25 29 30 29 32 33 32 31 31 30 28 29 28 27 26 26 25 26 24 23 21 20 21 20 9
MSLP
1014.51 1015.03 1015.49 1015.89 1016.48 1017.15 1017.59 1017.97 1018.00 1016.54 1016.14 1016.60 1015.94 1015.42 1015.25 1014.78 1014.81 1014.82 1015.19 1015.16 1015.07 1014.76 1014.42 1014.44 1014.60 1014.74 1014.88 1014.86 1014.73 1014.75 1015.12 1015.73 1016.25 1016.49 1016.20 1016.53 1015.95 1016.31 1017.01 1018.42 1019.37 1019.62 1018.16 1015.65
1013.97 1014.60 1015.17 1015.65 1016.27 1016.75 1017.57 1018.01 1017.63 1016.45 1016.20 1015.65 1015.51 1015.52 1015.23 1015.19 1015.28 1015.16 1015.56 1015.58 1015.53 1015.27 1015.36 1015.45 1015.26 1015.38 1015.61 1015.55 1015.52 1015.70 1015.75 1016.84 1017.33 1017.30 1017.31 1017.07 1017.31 1017.22 1017.10 1017.71 1018.56 1018.19 1017.81 1014.91
1013.44 1014.04 1014.65 1015.20 1015.85 1016.38 1017.03 1018.17 1017.95 1017.07 1016.16 1015.78 1015.66 1015.62 1015.37 1015.39 1015.24 1015.46 1015.92 1016.10 1016.06 1016.21 1016.00 1015.73 1015.92 1015.99 1016.11 1016.23 1016.44 1016.44 1016.50 1017.50 1017.78 1017.88 1017.67 1017.98 1018.55 1018.66 1018.57 1017.85 1018.17 1017.37 1016.04 1013.35
1012.80 1013.44 1014.06 1014.73 1015.34 1015.97 1016.94 1017.53 1017.29 1016.30 1015.98 1015.69 1015.63 1015.12 1014.93 1015.35 1015.84 1016.01 1016.27 1016.63 1016.76 1016.61 1016.63 1016.67 1016.64 1016.46 1016.60 1016.88 1017.20 1017.33 1017.70 1018.31 1018.43 1018.29 1018.29 1018.52 1018.13 1017.69 1018.00 1017.45 1016.97 1016.87 1014.08 1014.23
1012.05 1012.74 1013.31 1013.99 1014.86 1015.50 1016.66 1017.14 1017.19 1016.76 1016.15 1015.24 1015.70 1015.59 1015.30 1015.24 1015.70 1015.98 1016.16 1016.81 1016.93 1017.00 1017.28 1017.13 1017.24 1017.15 1017.56 1017.56 1017.91 1018.25 1018.65 1018.97 1019.21 1019.06 1018.67 1018.40 1017.67 1017.01 1016.76 1016.43 1015.79 1015.51 1014.62 1014.17
1011.27 1011.94 1012.64 1013.27 1014.01 1014.83 1015.13 1016.23 1016.54 1016.25 1016.02 1015.70 1015.40 1014.96 1015.24 1015.41 1015.90 1015.95 1016.13 1016.78 1017.35 1017.38 1017.35 1017.28 1017.21 1017.37 1017.71 1017.85 1018.22 1018.94 1019.51 1019.54 1019.73 1018.68 1018.33 1017.88 1016.42 1015.23 1015.06 1014.59 1014.33 1014.43 1014.73 1014.09
1010.43 1011.14 1011.87 1012.48 1013.16 1013.48 1014.55 1015.41 1016.31 1016.53 1016.37 1016.11 1015.30 1014.89 1015.16 1015.22 1015.52 1016.15 1016.34 1016.78 1017.22 1017.34 1017.33 1017.43 1017.50 1017.60 1017.58 1017.78 1018.06 1018.59 1019.60 1019.86 1019.67 1018.93 1018.63 1017.06 1014.07 1013.78 1014.04 1013.94 1013.69 1014.13 1014.36 1014.76
1009.46 1010.37 1011.00 1011.57 1012.44 1013.15 1014.03 1014.79 1015.71 1016.38 1016.53 1016.45 1015.87 1015.41 1015.21 1015.59 1015.96 1016.38 1016.64 1016.90 1017.11 1017.34 1017.69 1018.17 1018.27 1018.19 1018.11 1017.91 1018.41 1018.69 1018.94 1019.56 1019.49 1019.00 1018.03 1015.85 1014.20 1013.75 1013.95 1014.26 1013.99 1014.50 1014.79 1015.65
1008.60 1009.33 1010.24 1010.87 1011.66 1012.62 1013.45 1014.25 1014.54 1015.92 1016.36 1016.27 1015.79 1015.56 1015.52 1015.89 1016.45 1017.04 1017.06 1017.49 1017.47 1017.66 1018.35 1018.86 1019.02 1018.90 1018.32 1018.42 1018.87 1019.17 1019.12 1019.12 1019.25 1018.92 1018.06 1016.21 1014.40 1014.25 1014.21 1014.51 1014.80 1015.18 1015.78 1016.52
1007.58 1008.44 1009.25 1010.14 1010.97 1011.88 1013.03 1013.68 1014.19 1015.43 1016.48 1016.54 1016.31 1016.02 1015.71 1015.63 1016.30 1017.02 1017.56 1017.87 1018.26 1018.30 1018.91 1019.12 1019.24 1018.72 1017.89 1018.10 1018.50 1019.14 1019.34 1019.16 1018.87 1018.41 1017.87 1015.86 1014.64 1014.67 1014.94 1016.19 1016.43 1016.29 1016.74 1017.31
1006.54 1007.57 1008.39 1009.28 1010.25 1011.17 1012.31 1013.10 1013.68 1014.63 1016.05 1016.89 1016.83 1016.65 1016.39 1016.28 1016.13 1017.04 1017.76 1018.48 1018.77 1018.96 1019.13 1019.16 1018.82 1018.06 1017.43 1017.46 1017.41 1017.42 1017.90 1018.26 1018.28 1018.11 1017.68 1016.35 1015.51 1015.80 1016.40 1016.90 1017.01 1017.35 1017.84 1018.16
1005.55 1006.62 1007.59 1008.65 1009.61 1010.50 1011.66 1012.73 1013.32 1014.04 1015.75 1017.35 1017.30 1017.32 1017.29 1017.08 1016.76 1016.80 1017.43 1017.45 1017.65 1017.84 1018.58 1018.49 1017.88 1017.75 1017.54 1017.27 1017.16 1016.55 1016.78 1016.26 1016.71 1017.05 1016.21 1015.86 1016.43 1016.65 1017.09 1017.32 1017.95 1018.64 1018.99 1019.43
1004.48 1005.71 1006.78 1007.81 1008.89 1009.83 1010.76 1012.07 1013.18 1014.40 1016.03 1017.48 1017.84 1017.87 1017.46 1017.36 1017.04 1017.24 1017.23 1017.78 1017.55 1017.81 1017.94 1017.94 1017.94 1018.03 1017.50 1017.29 1016.51 1016.24 1016.12 1016.22 1016.53 1016.88 1016.32 1016.74 1017.06 1017.37 1017.53 1017.92 1018.73 1019.44 1020.04 1020.47
1003.55 1004.70 1005.85 1006.97 1008.15 1009.16 1010.20 1011.26 1012.31 1013.48 1014.95 1016.48 1017.71 1017.81 1017.68 1017.42 1017.27 1017.44 1017.52 1017.83 1018.08 1018.12 1018.12 1018.04 1017.87 1017.98 1017.30 1017.10 1016.53 1016.24 1015.94 1016.49 1016.72 1016.81 1017.11 1017.53 1017.77 1017.92 1018.52 1019.08 1019.72 1020.47 1021.04 1021.42
1002.52 1003.80 1004.97 1006.18 1007.38 1008.61 1009.93 1011.18 1011.81 1012.31 1013.67 1015.76 1017.43 1017.53 1017.39 1017.40 1017.53 1017.60 1017.87 1017.95 1018.45 1018.63 1018.58 1018.39 1018.23 1017.95 1017.97 1017.40 1017.18 1016.07 1015.72 1015.47 1016.14 1015.60 1015.80 1016.68 1017.72 1018.61 1019.20 1019.72 1020.47 1021.18 1021.78 1022.50
1001.67 1002.99 1004.23 1005.52 1006.65 1008.16 1009.74 1010.71 1011.47 1011.75 1012.71 1015.18 1017.00 1017.56 1017.43 1017.53 1017.55 1017.83 1018.01 1018.18 1018.48 1019.00 1018.67 1018.23 1017.99 1017.89 1018.02 1017.41 1016.12 1014.67 1014.28 1014.35 1014.56 1015.27 1016.10 1017.08 1018.24 1019.28 1019.83 1020.44 1021.38 1022.03 1022.60 1023.24
1001.01 1002.34 1003.65 1004.96 1006.16 1007.44 1008.18 1009.17 1009.34 1010.76 1012.42 1014.44 1016.54 1017.16 1017.50 1017.58 1017.73 1018.12 1018.24 1018.31 1018.58 1018.58 1018.58 1018.46 1018.30 1018.31 1018.13 1016.97 1015.31 1014.42 1013.85 1014.25 1015.01 1015.98 1017.03 1018.64 1019.17 1019.84 1020.53 1021.25 1022.10 1022.87 1023.53 1024.05
1000.51 1001.95 1003.35 1004.69 1006.05 1007.66 1008.39 1008.73 1008.99 1010.02 1012.42 1013.96 1015.29 1016.56 1017.32 1017.39 1017.68 1018.16 1018.39 1018.55 1018.66 1018.43 1018.28 1018.55 1018.54 1018.46 1017.82 1016.05 1014.33 1013.68 1014.19 1014.89 1015.90 1016.56 1016.71 1017.58 1019.12 1020.29 1021.20 1021.99 1022.79 1023.51 1024.06 1024.53
1000.11 1001.67 1003.26 1004.88 1005.65 1006.51 1007.39 1008.32 1009.39 1010.02 1011.76 1012.89 1014.25 1015.31 1016.45 1016.84 1017.18 1017.68 1018.24 1018.33 1018.49 1018.19 1017.83 1017.94 1018.15 1017.12 1015.43 1013.52 1012.96 1013.56 1014.22 1014.80 1016.06 1017.32 1017.91 1018.80 1019.45 1020.55 1021.54 1022.34 1023.14 1023.64 1024.28 1024.63
999.94 1001.91 1002.39 1003.93 1004.74 1006.14 1007.61 1009.15 1009.86 1010.07 1010.91 1012.03 1013.12 1013.80 1015.04 1015.77 1016.39 1017.21 1017.73 1017.75 1017.64 1017.66 1016.96 1017.09 1016.45 1014.21 1012.72 1012.15 1012.01 1012.62 1013.78 1014.66 1015.74 1017.09 1018.68 1019.32 1020.09 1020.80 1021.67 1022.35 1023.11 1023.63 1024.13 1024.46
999.41 1001.14 1002.81 1003.54 1004.18 1005.70 1007.30 1008.43 1009.00 1009.48 1010.31 1011.13 1012.19 1012.78 1013.90 1015.07 1015.65 1016.44 1016.90 1016.96 1016.90 1016.64 1015.89 1015.93 1014.82 1012.98 1011.35 1010.66 1011.50 1012.32 1013.40 1014.48 1015.32 1015.56 1016.79 1018.01 1018.88 1020.29 1021.45 1022.48 1023.20 1023.69 1023.96 1024.47
999.23 1000.21 1001.67 1002.89 1004.25 1005.74 1006.46 1007.42 1007.89 1007.98 1008.91 1010.34 1011.16 1012.32 1013.19 1014.79 1015.13 1015.71 1016.41 1016.33 1016.34 1015.33 1014.98 1015.00 1013.51 1010.84 1009.94 1010.29 1010.89 1012.04 1013.09 1014.30 1015.23 1016.03 1017.19 1018.40 1019.55 1020.52 1021.43 1022.38 1023.05 1023.47 1023.99 1024.39
999.02 1000.55 1002.33 1002.88 1004.00 1004.59 1005.39 1005.74 1006.53 1007.18 1007.84 1009.19 1010.04 1011.73 1012.65 1014.01 1014.44 1014.94 1015.31 1015.28 1014.89 1014.47 1014.45 1013.43 1010.75 1009.88 1009.92 1010.13 1011.02 1012.39 1013.53 1014.49 1015.40 1016.75 1017.75 1018.81 1019.92 1020.84 1021.65 1022.36 1022.93 1023.57 1024.05 1024.73
999.22 1000.47 1002.33 1002.38 1003.42 1003.51 1003.48 1004.09 1004.87 1005.72 1006.53 1007.71 1008.61 1010.34 1011.44 1012.55 1013.39 1013.73 1014.03 1013.72 1013.70 1013.43 1012.87 1010.82 1009.45 1008.79 1009.39 1010.52 1011.56 1012.67 1014.01 1014.80 1016.16 1016.96 1018.12 1019.19 1020.08 1021.09 1021.81 1022.38 1023.04 1023.70 1024.74 1025.54
999.29 1000.74 1001.70 1002.02 1002.11 1002.84 1003.19 1003.41 1004.41 1005.40 1006.06 1006.86 1008.95 1010.28 1010.78 1011.74 1012.31 1012.41 1012.63 1012.77 1012.02 1011.20 1009.70 1008.74 1007.36 1008.09 1009.38 1010.85 1012.18 1013.37 1014.51 1015.63 1016.77 1017.48 1018.42 1019.36 1020.23 1021.17 1022.07 1022.76 1023.07 1024.05 1025.03 1025.82
999.19 1000.09 1000.72 1001.57 1002.30 1003.47 1003.54 1003.71 1004.24 1004.62 1005.75 1006.85 1007.74 1009.24 1010.27 1010.46 1010.62 1011.04 1010.84 1010.91 1010.11 1008.68 1007.95 1007.46 1007.76 1008.64 1009.81 1011.13 1012.19 1013.45 1014.82 1015.96 1016.89 1017.75 1018.59 1019.48 1020.35 1021.26 1022.10 1022.69 1023.56 1024.37 1025.05 1025.98
999.77 1000.80 1000.81 1001.42 1001.74 1002.22 1003.06 1003.50 1003.98 1004.33 1004.69 1005.81 1007.00 1008.25 1008.55 1009.12 1009.45 1009.79 1009.46 1008.87 1007.76 1007.03 1007.31 1007.68 1008.07 1008.90 1010.04 1011.33 1012.69 1013.75 1015.06 1016.20 1017.17 1017.92 1018.72 1019.61 1020.60 1021.43 1022.13 1023.11 1023.86 1024.31 1024.95 1025.54
Wind_Speed
14 13 14 13 11 11 6 3 2 2 7 7 3 12 5 4 4 4 2 2 1 1 4 3 2 3 3 8 4 2 2 5 2 2 4 7 3 1 3 5 4 6 5 8
16 15 15 15 15 15 4 3 3 2 3 11 12 3 4 2 5 3 2 3 3 1 0 2 2 3 3 7 4 3 2 1 2 5 3 1 3 5 2 5 3 6 4 10
18 17 17 17 20 15 5 3 1 4 5 3 9 6 15 10 2 4 4 2 1 2 3 3 3 2 3 4 3 7 3 3 6 7 4 4 1 13 14 2 3 7 10 26
20 19 20 19 22 20 6 2 5 3 6 12 7 4 4 14 6 4 4 2 4 4 3 3 2 1 1 3 2 3 3 4 4 4 3 3 7 13 16 14 17 9 24 19
23 23 22 21 23 22 4 6 4 2 2 6 16 10 7 16 14 8 5 4 1 5 6 7 4 4 3 4 3 2 4 3 2 4 7 9 14 17 16 17 18 17 21 23
25 24 23 23 26 16 4 3 1 2 3 2 11 15 16 9 5 3 6 9 4 3 6 7 9 6 5 5 4 3 3 5 2 6 5 5 14 14 18 14 11 8 11 8
26 26 25 24 26 26 4 3 3 3 3 3 4 6 11 11 16 11 5 6 6 4 2 2 1 3 5 5 6 5 6 3 2 4 3 11 7 0 7 16 14 10 3 3
28 27 26 26 25 29 5 4 5 3 2 3 5 7 4 9 6 3 3 5 4 7 4 3 5 5 5 2 3 3 4 5 3 3 8 16 12 5 4 7 6 3 4 5
29 28 27 26 25 27 11 2 4 4 3 5 3 6 7 5 5 3 3 2 3 2 3 3 3 4 4 4 1 1 5 2 3 3 4 7 1 3 2 1 8 3 5 3
30 28 27 26 26 25 14 3 4 5 3 1 1 2 5 6 5 4 4 4 1 1 3 3 3 7 3 4 6 6 4 1 9 7 5 9 2 2 1 3 5 1 3 1
31 30 29 27 26 27 19 3 5 7 4 3 1 3 1 3 3 5 4 5 1 1 4 3 4 4 6 3 4 7 8 7 5 3 5 10 4 2 6 1 1 2 3 4
32 31 30 28 27 28 24 4 4 4 3 2 1 2 2 2 2 5 2 5 5 6 2 2 0 1 2 4 5 1 4 8 6 9 7 3 2 3 2 2 3 3 6 8
32 31 31 30 28 28 26 5 8 5 4 2 2 4 1 3 2 1 5 1 1 1 0 2 1 4 3 4 5 4 3 2 1 2 3 4 3 1 3 4 9 10 9 8
32 32 31 30 29 30 28 7 7 10 3 4 3 1 3 1 3 4 3 4 3 3 0 1 1 3 2 3 3 4 4 5 3 4 3 3 3 5 9 11 11 11 10 9
32 32 31 30 30 30 18 5 8 11 5 5 3 1 2 3 4 3 2 4 3 2 1 2 3 2 2 2 1 3 5 8 6 8 9 3 5 10 11 11 10 10 11 10
32 31 31 30 30 30 12 3 8 13 8 5 3 2 2 0 3 5 6 3 3 2 3 2 0 2 2 4 4 4 11 6 5 4 7 8 11 9 9 12 10 10 10 8
31 30 30 30 29 14 9 5 5 17 8 4 4 3 3 3 3 2 2 3 1 3 2 3 2 3 3 3 7 5 9 10 8 14 15 7 7 7 10 12 11 11 9 6
30 29 29 28 28 17 5 2 22 19 6 4 4 3 4 4 3 2 1 3 2 2 2 2 2 2 3 7 10 4 3 11 11 9 4 9 12 12 11 11 10 9 7 6
31 29 29 15 11 4 4 17 26 3 5 6 4 9 6 5 3 3 2 1 2 2 4 4 6 5 10 10 7 11 12 9 12 10 13 14 14 13 11 10 8 8 7 5
31 20 5 4 7 24 22 8 7 2 2 2 4 3 6 5 3 3 4 3 4 5 6 5 6 7 7 7 9 13 15 17 19 18 12 11 12 12 11 10 8 7 6 5
5 4 3 6 29 6 3 5 6 5 5 5 4 4 9 2 5 4 3 3 3 4 5 7 4 6 7 13 10 15 15 17 14 7 10 12 14 15 12 10 9 7 6 5
9 9 7 5 5 3 7 6 4 4 7 5 8 6 5 3 4 4 5 4 3 7 6 3 5 6 6 10 15 17 17 16 11 11 14 13 13 12 11 11 9 7 6 5
10 6 4 3 2 6 8 9 5 7 6 6 7 7 5 4 3 3 5 6 6 4 4 6 8 2 7 11 13 14 13 14 15 14 13 13 13 10 11 10 7 6 6 4
3 5 6 4 4 5 5 6 7 5 8 14 13 7 5 3 5 4 6 5 3 5 5 9 4 12 13 11 12 15 15 16 15 15 15 14 13 11 9 7 7 6 6 3
5 5 5 5 3 3 3 4 7 4 10 13 7 4 4 3 4 4 4 6 6 7 7 6 5 10 15 15 15 15 14 14 13 13 13 11 9 9 6 5 6 7 6 5
3 4 3 3 5 3 3 5 9 7 12 6 4 5 4 5 5 6 8 6 8 6 5 1 8 14 15 16 16 15 13 13 13 12 12 12 9 9 9 7 6 6 6 6
4 2 2 3 3 5 4 5 5 12 12 6 5 8 10 3 4 6 6 7 6 4 2 4 10 16 17 16 15 15 14 13 12 12 12 10 9 10 9 8 7 6 6 5
Wind_Direction
198 196 195 189 178 143 135 122 200 240 149 188 195 224 175 124 204 89 182 80 171 82 42 22 319 298 23 339 312 57 354 142 90 317 329 321 305 183 120 127 213 237 212 258
197 199 196 190 158 153 134 152 249 242 157 215 211 195 205 127 160 146 177 222 233 72 161 339 232 28 337 358 39 135 169 43 54 343 8 326 333 314 188 106 52 210 251 267
199 198 199 193 164 169 101 125 183 304 213 207 212 193 217 221 169 127 137 106 115 160 208 193 286 33 14 11 44 32 54 150 168 228 220 139 12 321 308 335 126 259 231 277
200 201 200 196 176 176 111 162 226 221 198 212 229 186 150 191 163 170 169 112 207 171 191 36 231 1 33 73 4 27 102 199 203 243 239 179 228 237 250 211 238 230 274 272
202 202 201 196 183 176 181 150 185 192 271 181 198 210 194 197 188 152 196 179 234 205 168 186 223 46 358 259 25 35 6 270 134 268 233 225 253 245 235 242 248 257 271 277
200 202 207 197 189 167 168 160 274 163 245 205 185 209 221 192 199 255 162 185 183 262 238 226 238 209 218 229 192 195 174 144 126 272 211 272 278 228 222 238 226 212 251 260
200 203 206 204 195 192 122 171 116 109 277 205 189 165 192 189 194 188 190 143 163 217 103 108 143 225 224 205 230 152 152 146 167 281 70 264 253 30 241 230 247 237 271 108
201 202 205 205 202 197 178 171 155 149 209 209 194 204 171 200 169 158 176 163 206 149 74 17 0 336 359 297 46 180 170 146 258 242 251 285 292 319 191 196 265 198 161 119
203 201 203 206 200 199 190 167 131 125 116 227 310 178 169 160 161 123 105 42 358 50 112 102 191 233 228 260 204 38 117 112 190 123 251 256 229 245 3 339 279 145 113 146
200 202 203 205 202 198 194 173 162 129 125 259 333 195 199 138 129 131 120 137 71 338 131 182 191 251 232 242 197 177 176 184 224 233 262 276 274 161 336 111 308 149 149 113
198 200 204 206 201 199 191 135 172 160 140 242 186 353 298 37 117 139 183 97 304 31 178 160 217 207 216 227 199 180 165 178 187 193 222 271 18 48 171 186 33 80 79 57
197 197 200 204 201 198 190 193 152 91 126 192 3 78 325 352 30 126 199 155 165 188 143 237 90 158 191 181 249 252 225 193 184 189 218 100 22 104 2 266 78 51 90 82
196 196 197 200 200 196 188 168 156 99 121 42 102 209 290 315 44 36 126 277 106 177 320 201 178 242 138 200 230 218 325 63 193 48 197 203 194 108 48 88 113 95 96 97
196 195 197 197 197 194 187 180 173 161 133 141 239 238 244 65 62 60 43 112 66 80 283 199 196 211 176 235 280 205 169 131 193 247 247 153 259 194 129 110 108 110 89 75
194 194 194 194 192 190 182 150 177 179 141 151 157 88 186 155 135 111 118 104 99 38 323 181 209 151 209 181 295 225 189 181 192 236 200 146 141 145 138 131 129 125 116 94
190 189 190 189 184 180 168 140 185 184 153 108 139 278 67 114 189 158 179 158 112 197 231 219 234 347 204 230 243 240 203 197 206 218 117 115 121 120 126 117 119 108 108 109
184 185 185 183 178 172 181 183 170 163 147 102 121 142 167 144 112 78 88 78 170 168 210 215 168 213 207 252 255 231 217 202 128 122 111 92 149 159 136 128 122 113 104 100
179 181 179 174 171 162 155 245 153 144 128 130 136 120 146 187 147 126 168 127 149 202 191 114 200 184 220 248 232 232 126 127 141 156 76 132 127 130 132 129 131 130 130 140
174 175 166 154 176 133 144 153 158 80 134 154 141 145 169 164 126 115 119 172 180 153 212 206 156 196 221 219 207 169 166 163 143 111 112 133 140 142 142 143 147 141 147 149
162 154 144 125 148 126 121 122 177 141 146 99 119 130 134 151 130 150 139 179 212 199 218 144 219 245 231 217 203 176 164 145 138 125 145 149 152 158 160 164 159 154 155 140
134 120 133 154 140 81 93 149 169 160 166 151 140 135 127 218 139 144 198 184 197 228 214 185 230 259 229 200 178 165 156 158 171 127 154 162 155 157 156 154 157 156 148 161
140 126 106 118 91 127 142 172 152 150 159 136 132 142 130 153 127 119 171 203 175 247 149 211 252 241 195 167 164 162 158 161 139 136 140 139 145 150 149 155 156 152 150 136
116 83 117 158 157 141 166 157 148 141 138 155 143 124 125 130 159 131 175 205 225 121 189 227 230 223 175 164 151 149 148 136 122 126 127 131 135 138 150 151 148 148 118 108
108 110 148 157 154 187 171 136 131 161 141 148 149 117 136 140 164 153 175 208 162 219 222 234 214 208 180 154 146 139 144 135 139 137 139 142 144 148 144 135 147 120 133 122
102 141 149 171 144 76 140 110 105 111 138 138 112 83 114 149 133 191 158 191 228 219 228 221 217 156 152 150 149 143 140 139 145 144 147 141 133 135 130 145 125 117 125 136
68 82 82 80 80 112 61 90 114 133 142 115 85 131 132 186 172 172 202 182 217 237 220 225 139 147 150 151 147 145 144 147 145 146 145 141 137 145 148 121 120 133 139 158
52 30 50 109 83 128 143 118 138 155 144 159 133 159 199 121 170 199 182 209 216 201 187 155 156 154 151 145 142 138 143 143 145 141 141 139 139 132 128 139 152 157 159 178